sat.trackr.live / text

‹ back to catalog

YAOGAN-36 05C

NORAD 57456 · 2023-106E

PAYLOAD ACTIVE UNKNOWN

§ Identity

Operator
Country
PRC
Launch date
2023-07-26
Launch site
XICLF
Launch vehicle
Mass (kg)
RCS (m²)

External: N2YO · Heavens-Above · Gunter

§ Orbital elements

Epoch: 2026-05-25T04:48:03.336768Z

Period
94.86 min
Inclination
34.9926°
Eccentricity
0.0008746
Mean motion
15.18081788 rev/d
Perigee alt
505.6 km
Apogee alt
517.7 km
Semi-major
6,889.8 km
B*
2.5838e-4
RAAN
223.7435°
Arg perigee
146.3309°
Mean anomaly
213.7961°
Rev number
15,737

§ Raw data

YAOGAN-36 05C1 57456U 23106E   26145.20003862  .00005363  00000+0  25838-3 0  99932 57456  34.9926 223.7435 0008746 146.3309 213.7961 15.18081788157378

JSON: /api/v1/satellites/57456 · /tle

For live sub-satellite position, see the globe view (requires WebGL).

§ Visibility from observer

Set your observer location to see the next 7 days of passes ≥ 10°. The values pass through the URL so the page stays shareable.

No JS? Fill the form by hand. The geolocation button needs JavaScript.